Regional Weather Roundup
Issued by NWS Wilmington, NC

Home | Current Version | Previous Version | Text Only | Print | Product List | Glossary On
Versions: 1 2 3 4 5 6 7 8 9 10 11 12 13 14 15 16 17 18 19 20 21 22 23 24 25 26 27 28 29 30 31 32 33 34 35 36 37 38 39 40 41 42 43 44 45 46 47 48 49 50
988
ASUS42 KILM 231513
RWRILM
RWRILM
REGIONAL HOURLY WEATHER ROUNDUP
NATIONAL WEATHER SERVICE WILMINGTON NC
1100 AM EDT TUE MAY 23 2017

NOTE: "FAIR" INDICATES FEW OR NO CLOUDS BELOW 12,000 FEET WITH NO
SIGNIFICANT WEATHER AND/OR OBSTRUCTIONS TO VISIBILITY.

...............WFO WILMINGTON COUNTY WARNING AREA...............

......COASTAL NC AND SC COUNTIES......

CITY           SKY/WX    TMP DP  RH WIND       PRES   REMARKS
WILMINGTON     CLOUDY    74  72  93 S8        29.83F
N MYRTLE BEACH CLOUDY    76  72  87 SW8       29.83F
MYRTLE BEACH   CLOUDY    75  72  88 W10       29.85F

......INLAND NC AND SC COUNTIES.......

CITY           SKY/WX    TMP DP  RH WIND       PRES   REMARKS
LUMBERTON      CLOUDY    73  70  90 SW7       29.82F
ELIZABETHTOWN  CLOUDY    74  71  89 SW6       29.83S
WHITEVILLE     CLOUDY    75  70  83 W6        29.83S
FLORENCE       LGT RAIN  72  70  93 SW6       29.83F
DARLINGTON     LGT RAIN  72  70  93 SW8       29.83F
KINGSTREE      CLOUDY    73  70  88 CALM      29.82F
HARTSVILLE     CLOUDY    70  70 100 S3        29.82F
BENNETTSVILLE  RAIN      72  72 100 SW5       29.82F
CONWAY         CLOUDY    75  70  83 SW6       29.83F
GEORGETOWN     CLOUDY    73  73 100 W6        29.85F
MARION         CLOUDY    72  68  88 SW9       29.84S

....................REST OF NORTH CAROLINA......................

.........EASTERN NC.........

CITY           SKY/WX    TMP DP  RH WIND       PRES   REMARKS
CAPE HATTERAS  NOT AVBL
JACKSONVILLE   CLOUDY    75  71  87 S5        29.84F
MOREHEAD CITY  LGT RAIN  74  72  93 S18G29    29.85F
KENANSVILLE    CLOUDY    73  70  88 S3        29.84F
NEW BERN       CLOUDY    73  72  96 S5        29.86S
ELIZABETH CITY HVY RAIN  66  66 100 E15       29.89F FOG

.........CENTRAL NC.........

CITY           SKY/WX    TMP DP  RH WIND       PRES   REMARKS
RALEIGH DURHAM LGT RAIN  69  67  93 E6        29.85F FOG
ROCKY MOUNT    LGT RAIN  68  68 100 NE3       29.85S
ROANOKE RAPIDS NOT AVBL
FAYETTEVILLE   CLOUDY    70  69  97 E3        29.83S FOG
HOFFMAN        LGT RAIN  69  67  96 NE3       29.84F

.........WESTERN NC.........

CITY           SKY/WX    TMP DP  RH WIND       PRES   REMARKS
CHARLOTTE      RAIN      70  65  84 E5        29.84S
GREENSBORO     CLOUDY    64  64 100 N7        29.84F FOG
HICKORY        NOT AVBL
BOONE          NOT AVBL
ASHEVILLE      NOT AVBL

.....................REST OF SOUTH CAROLINA.....................

.........EASTERN SC.........

CITY           SKY/WX    TMP DP  RH WIND       PRES   REMARKS
CHARLESTON     CLOUDY    76  69  79 SW10      29.84F
BEAUFORT MCAS  CLOUDY    78  75  90 SW17      29.85F
HILTON HEAD    PTSUNNY   79  73  83 S9        29.86F

.........CENTRAL SC.........

CITY           SKY/WX    TMP DP  RH WIND       PRES   REMARKS
COLUMBIA       CLOUDY    74  70  87 SW7       29.81S
ORANGEBURG     LGT RAIN  73  71  93 SW10      29.83F
SUMTER SHAW    CLOUDY    73  70  88 S6        29.80F

.........WESTERN SC.........

CITY           SKY/WX    TMP DP  RH WIND       PRES   REMARKS
GREENVILLE     NOT AVBL
ROCK HILL      RAIN      69  67  93 E3        29.83F FOG
ANDERSON       LGT RAIN  66  64  93 SE5       29.82F
CLEMSON        NOT AVBL
GREENWOOD      LGT RAIN  67  65  93 CALM      29.85F FOG


...................COASTAL AND OFFSHORE REPORTS..................

................LOCAL PIERS AND NC RESERVE................


STATION/POSITION TIME  SKY/WX   TEMP    WIND        PRES    VSBY
                                AIR SEA DIR/SP/G
                 (UTC)          (F)     (DEG/KT/KT) (MB)    (MI)
JOHNY MRCER PIER 1448            72 75  200/ 14/ 16 1009.3F
NC RESRV MASNBRO 1345            72     220/  3     1011.0
OCEAN CREST PIER NOT AVBL
SPRINGMAID  PIER 1448                               1009.7F


................COASTAL AND OFFSHORE BUOYS................


STATION/POSITION TIME  SKY/WX   TEMP    WIND        PRES    VSBY
                                AIR SEA DIR/SP/G
                 (UTC)          (F)     (DEG/KT/KT) (MB)    (MI)
DIMNDSHOAL 41025 1450            74 77  230/ 12/ 14 1011.9F
WVE H/P(F/S)=  4/ 5 SWL H/P/D(F/S/D)=  2/130/ 8

CAPE LOOKOUT     1500            73     200/ 17/ 21 1010.5F
ONSLOW BAY 41036 NOT AVBL
ONSLOW BAY 41064 1408            74 76  200/ 17/ 23 1011.2F
ONSLOW BAY 41159 1443               76                N/A
WVE H/P(F/S)=  5/ 5

MASNBO INL 41110 1429               75                N/A
WVE H/P(F/S)=  3/ 4

WILM HARBR 41108 1447               76                N/A
WVE H/P(F/S)=  5/ 6

27SE WRITB 41037 1408            74 75  180/ 17/ 23 1010.1F
FRYING PAN 41013 1500            77 77  200/ 17/ 21 1010.5
SUNST NRSH 41024 1408            75 76  260/ 10/ 14 1010.6R
CAPRS NRSH 41029 1408            78 75  250/ 16/ 19 1010.6F
EDISTO     41004 1450            77 78  230/ 14/ 17 1011.0F
WVE H/P(F/S)=  6/ 6



..........OFFSHORE BUOYS BEYOND 100 NM OFFSHORE...........
.....IN A TRIANGLE---HAT TO BERMUDA TO BAHAMAS TO HAT.....


STATION/POSITION TIME  SKY/WX   TEMP    WIND        PRES    VSBY
                                AIR SEA DIR/SP/G
                 (UTC)          (F)     (DEG/KT/KT) (MB)    (MI)
150E HAT   41001 1500            74 73  210/ 16/ 19 1015.0
W BERMUDA  41048 1500            74 75  220/ 12/ 14 1018.6
ATLANTIC S 41049 1450            73 78   90/  6/  8 1021.9F
WVE H/P(F/S)=  6/13 SWL H/P/D(F/S/D)=  5/ 20/13

E BAHAMAS  41046 1500            79 80  120/ 10/ 14 1019.8
NE BAHAMAS 41047 1500            78 78  180/ 14/ 16 1018.9
120E CANVRL41010 1500            79 79  200/ 14/ 17 1015.0

END




USA.gov is the U.S. government's official web portal to all federal, state and local government web resources and services.